Temp
3 3 2 1 0 -0 -1 -1 -2 -2 -2 -2 -3 -3 -3 -3 -4 -4 -4 -5 -5 -5
2 2 1 0 -0 -1 -2 -2 -3 -3 -3 -3 -3 -4 -4 -4 -4 -4 -5 -5 -5 -6
1 1 0 -1 -1 -2 -3 -3 -3 -3 -4 -4 -4 -4 -4 -4 -5 -5 -5 -5 -6 -6
-0 -1 -1 -2 -2 -2 -3 -3 -4 -4 -4 -4 -4 -5 -5 -5 -5 -5 -5 -5 -5 -5
-2 -2 -3 -3 -3 -4 -4 -4 -4 -4 -4 -5 -5 -5 -5 -5 -6 -6 -5 -5 -6 -6
-3 -4 -4 -4 -4 -4 -4 -4 -4 -4 -5 -5 -5 -5 -6 -6 -5 -5 -5 -5 -6 -6
-4 -4 -5 -5 -5 -5 -5 -6 -6 -6 -6 -6 -6 -6 -6 -5 -5 -5 -5 -5 -5 -5
-5 -5 -5 -6 -5 -6 -6 -7 -7 -6 -6 -6 -6 -6 -6 -6 -5 -5 -5 -5 -5 -5
-5 -6 -6 -7 -7 -7 -7 -7 -7 -7 -7 -6 -6 -7 -6 -5 -4 -5 -5 -5 -5 -5
-7 -7 -8 -8 -8 -8 -8 -7 -7 -7 -7 -7 -6 -7 -6 -4 -5 -5 -5 -5 -5 -5
-8 -8 -8 -9 -9 -8 -8 -8 -8 -7 -7 -7 -7 -7 -6 -5 -5 -5 -5 -5 -5 -6
-9 -9 -9 -9 -9 -8 -8 -8 -8 -8 -7 -7 -7 -7 -6 -5 -5 -5 -5 -5 -5 -5
-9 -9 -9 -9 -9 -9 -9 -8 -8 -8 -8 -7 -7 -7 -6 -5 -5 -5 -5 -5 -6 -5
-10 -10 -10 -9 -9 -9 -9 -9 -8 -8 -7 -7 -7 -7 -6 -5 -5 -5 -5 -5 -6 -6
Height
778 786 793 798 803 807 811 815 817 819 820 821 822 823 824 823 823 824 826 827 827 827
778 783 789 795 802 807 811 813 816 818 820 821 822 822 822 822 822 823 824 825 825 826
779 784 789 794 800 804 808 811 814 816 818 820 821 822 822 822 822 822 822 823 823 822
779 785 789 792 796 800 805 809 812 814 816 818 819 820 821 821 821 820 821 820 819 819
779 785 791 794 797 800 802 805 808 811 813 815 817 817 818 818 818 818 817 816 817 817
781 787 791 796 799 802 803 805 806 808 810 811 813 814 814 814 816 816 815 815 815 814
785 788 792 797 800 802 804 805 806 807 808 808 809 812 812 813 812 813 814 813 811 809
786 790 792 795 799 800 802 804 804 806 807 808 808 809 810 811 809 808 809 809 806 804
787 789 792 796 797 800 802 803 804 805 807 806 806 806 808 808 806 806 805 804 801 798
788 789 792 796 798 799 800 801 803 804 806 804 803 803 805 804 803 803 802 799 795 791
788 790 793 796 797 799 799 801 803 804 804 801 800 801 802 801 799 799 797 793 790 787
789 791 793 795 796 796 799 800 803 803 801 799 799 798 798 798 797 795 791 788 784 782
789 791 793 794 795 797 798 800 800 800 799 798 797 795 796 795 793 790 785 782 782 778
790 791 793 794 795 796 797 797 797 796 796 795 795 794 793 792 790 786 781 779 776 774
Wind_Speed
29 28 26 25 23 19 16 13 10 7 4 2 1 2 3 3 3 4 5 6 7 9
28 27 26 23 20 16 13 11 9 5 3 2 2 3 4 4 5 6 7 7 8 9
25 25 24 22 19 16 13 10 6 4 3 2 3 4 5 5 5 7 7 9 9 10
26 24 22 21 19 15 11 8 6 4 2 3 3 5 6 7 7 7 8 8 11 13
25 23 20 17 15 12 11 9 6 4 4 4 5 6 7 8 8 9 10 10 13 16
23 20 18 14 12 10 9 7 5 4 4 4 5 6 7 8 8 10 11 13 16 18
19 18 16 13 10 8 6 4 2 2 3 3 5 7 7 6 8 11 15 15 17 20
18 16 15 13 9 5 2 1 1 3 4 5 6 6 6 9 12 13 16 18 18 20
17 15 11 8 5 3 1 3 3 3 4 4 6 6 8 11 13 13 16 20 22 22
12 11 8 6 5 3 2 2 2 3 3 5 6 6 8 11 13 15 17 20 23 25
10 8 6 4 2 1 0 1 3 3 3 5 6 6 8 10 12 14 17 21 23 22
8 6 4 3 2 1 1 3 4 4 5 6 6 7 8 11 13 15 20 24 20 21
5 4 4 3 3 4 3 3 3 4 4 6 8 8 9 11 13 18 22 18 21 20
3 3 4 5 4 4 4 3 2 3 5 5 7 9 9 11 14 18 16 21 22 24
Wind_Direction
190 188 188 183 179 177 177 176 177 184 195 205 234 271 290 312 328 321 308 298 297 293
186 185 178 174 175 174 172 172 175 185 199 221 257 280 294 304 307 302 300 300 298 292
179 177 173 169 166 165 164 167 172 182 203 250 279 290 292 295 298 301 301 304 302 305
167 166 164 163 161 161 161 164 169 181 218 258 274 281 287 293 299 295 300 308 310 310
157 157 156 154 153 155 157 160 169 191 221 247 266 275 284 293 297 300 310 314 306 301
148 147 144 144 147 151 156 164 181 205 228 255 279 293 301 302 300 307 305 303 298 299
141 140 137 136 140 146 153 166 191 266 303 310 314 296 291 286 306 305 302 301 300 302
135 136 138 141 145 147 143 150 15 325 304 295 290 294 293 307 306 304 303 301 304 307
143 143 145 154 152 146 188 293 283 286 286 289 299 296 293 293 301 299 304 305 310 314
148 150 152 154 161 173 201 224 264 284 283 307 315 315 304 301 306 304 304 306 314 319
142 135 135 141 147 175 195 305 285 260 282 318 330 312 308 305 305 307 310 315 320 320
131 130 143 156 157 167 269 285 265 282 310 320 328 326 318 308 318 316 318 325 326 320
136 154 177 196 198 206 222 235 253 297 322 330 326 334 325 321 321 322 326 334 321 322
160 188 206 201 212 219 224 235 263 320 339 346 346 338 329 324 329 324 329 330 326 320